Regional Weather Roundup
Issued by NWS

Home | Current Version | Previous Version | Graphics & Text | Print | Product List | Glossary On
Versions: 1 2 3 4 5 6 7 8 9 10 11 12 13 14 15 16 17 18 19 20 21 22 23 24 25 26 27 28 29 30 31 32 33 34 35 36 37 38 39 40 41 42 43 44 45 46 47 48 49 50
000
ASUS43 KOAX 180802
RWRNE

WEATHER ROUNDUP FOR NEBRASKA
NATIONAL WEATHER SERVICE OMAHA NE
200 AM CST MON DEC 18 2017

NOTES: SATELLITE DATA IS BEING USED TO AUGMENT CLOUD COVER ABOVE
       12000 FEET.
       "FAIR" INDICATES FEW OR NO CLOUDS BELOW 12,000 FEET WITH NO
       SIGNIFICANT WEATHER AND/OR OBSTRUCTIONS TO VISIBILITY.


NEZ001>004-019>022-054>056-180900-
NEBRASKA PANHANDLE

CITY           SKY/WX    TMP DP  RH WIND       PRES   REMARKS
SCOTTSBLUFF    CLOUDY    20  12  71 CALM      29.94F
ALLIANCE       CLOUDY    19  14  81 W8        29.91F WCI   9
CHADRON        CLOUDY    22  15  75 W6        29.91S WCI  14
GORDON         FAIR      30  18  62 W6        29.87S WCI  24
KIMBALL        CLOUDY    22  19  87 W6        29.95F WCI  14
SIDNEY         CLOUDY    22  19  89 W7        29.96F WCI  13
$$

NEZ057>060-069>072-079>082-180900-
SOUTHWEST NEBRASKA

CITY           SKY/WX    TMP DP  RH WIND       PRES   REMARKS
NORTH PLATTE   CLEAR     23  20  88 NW6       29.94F WCI  16
IMPERIAL       CLOUDY    25  21  85 W10       29.97S WCI  15
LEXINGTON      CLOUDY    27  24  87 W6        29.96S WCI  21
MCCOOK         CLOUDY    22  20  92 W7        29.98S WCI  13
OGALLALA       CLOUDY    22  19  89 W6        29.96F WCI  14
$$

NEZ005>010-023>029-035>040-094-180900-
NORTH CENTRAL NEBRASKA

CITY           SKY/WX    TMP DP  RH WIND       PRES   REMARKS
VALENTINE      CLEAR     28  24  85 W9        29.86S WCI  19
AINSWORTH      CLOUDY    30  26  85 W9        29.85S WCI  21
BROKEN BOW     CLEAR     30  25  81 W10       29.90F WCI  21
O`NEILL        CLEAR     32  31  95 SW10      29.84F WCI  24
ORD            CLEAR     32  28  85 SW15      29.89F WCI  22
THEDFORD       CLEAR     29  23  76 W10       29.89S WCI  20
$$

NEZ041-046>049-061>064-073>077-083>087-180900-
SOUTH CENTRAL NEBRASKA

CITY           SKY/WX    TMP DP  RH WIND       PRES   REMARKS
GRAND ISLAND   CLEAR     31  28  89 SW13      29.95F WCI  21
AURORA         CLEAR     30  28  92 SW13      29.95F WCI  20
HASTINGS       CLEAR     28  24  85 SW7       29.96F WCI  21
HEBRON         CLOUDY    24  23  94 CALM      30.01R
HOLDREGE       CLOUDY    30  28  94 W10       29.97S WCI  21
KEARNEY        CLEAR     29  27  92 SW10      29.96F WCI  20
YORK           CLOUDY    25  25 100 SW9       29.96F WCI  15
$$

NEZ011>018-030>034-042>045-180900-
NORTHEAST NEBRASKA

CITY           SKY/WX    TMP DP  RH WIND       PRES   REMARKS
NORFOLK        CLEAR     24  22  91 CALM      29.90F
ALBION         PTCLDY    29  26  90 S6        29.90F WCI  23
BLAIR          CLOUDY    26  25  95 SW6       29.95F FOG     WCI  19
COLUMBUS       CLOUDY    19  16  88 CALM      29.94F
FREMONT        CLOUDY    22  21  97 CALM      29.96F FOG
TEKAMAH        CLOUDY    20  17  88 S7        29.96F FOG     WCI  11
WAYNE          CLOUDY    23  22  96 S6        29.90F WCI  16
$$

NEZ050>053-065>068-078-088>093-180900-
SOUTHEAST NEBRASKA

CITY           SKY/WX    TMP DP  RH WIND       PRES   REMARKS
LINCOLN        CLOUDY    28  24  85 CALM      29.99F
OMAHA EPPLEY   CLOUDY    25  21  85 SE6       29.98S WCI  18
BEATRICE       CLEAR     27  26  98 SW5       30.01R FOG     WCI  22
FALLS CITY     FOG       34  34 100 CALM      30.01R VSB 3/4
NEBRASKA CITY  CLEAR     27  27 100 SW8       29.99S FOG     WCI  18
PLATTSMOUTH    CLEAR     31  30  98 S6        29.97S FOG     WCI  25
$$

NEZ044-045-051>053-067-180900-
OMAHA AREA

CITY           SKY/WX    TMP DP  RH WIND       PRES   REMARKS
OMAHA EPPLEY   CLOUDY    25  21  85 SE6       29.98S WCI  18
BLAIR          CLOUDY    26  25  95 SW6       29.95F FOG     WCI  19
FREMONT        CLOUDY    22  21  97 CALM      29.96F FOG
MILLARD        CLOUDY    27  25  94 CALM      29.98S FOG
OFFUTT AFB     FOG       23  19  86 CALM      29.97S VSB 3/4
PLATTSMOUTH    CLEAR     31  30  98 S6        29.97S FOG     WCI  25
WAHOO            N/A     23  21  93 CALM      29.96F FOG
$$




USA.gov is the U.S. government's official web portal to all federal, state and local government web resources and services.